Location: Newark
(46.1292°N, 1.0086°W)
Time: 16:16:53
(UTC+00:00)

Courier 1B Rocket - All Passes

Search period start: 18 November 2019 00:00
Search period end: 28 November 2019 00:00
Orbit: 920 x 1202 km, 28.2° (Epoch: 17 November)

Date Brightness Start Highest point End Pass type
(mag) Time Alt. Az. Time Alt. Az. Time Alt. Az.
18 Nov - 15:32:12 10° SSW 15:36:10 15° SSE 15:40:14 10° SE daylight
18 Nov - 17:23:29 10° SW 17:28:33 19° S 17:33:44 10° SE visible
18 Nov - 19:17:00 10° SW 19:20:58 15° SSW 19:24:59 10° SSE visible
19 Nov - 14:32:49 10° S 14:35:27 12° SSE 14:38:07 10° SE daylight
19 Nov - 16:22:53 10° SW 16:27:43 19° S 16:32:42 10° SE daylight
19 Nov - 18:15:36 10° SW 18:20:09 17° S 18:24:47 10° SSE visible
20 Nov - 15:22:34 10° SSW 15:26:55 17° S 15:31:25 10° SE daylight
20 Nov - 17:14:33 10° SW 17:19:19 18° S 17:24:13 10° SE visible
20 Nov - 19:09:18 10° SW 19:11:40 12° SSW 19:14:05 10° S visible
21 Nov - 14:22:39 10° SSW 14:26:12 14° SSE 14:29:51 10° SE daylight
21 Nov - 16:13:47 10° SW 16:18:30 19° S 16:23:23 10° SE daylight
21 Nov - 18:07:14 10° SW 18:10:53 14° SSW 18:14:37 10° SSE visible
22 Nov - 13:23:31 10° S 13:25:31 11° SSE 13:27:34 10° SE daylight
22 Nov - 15:13:16 10° SW 15:17:43 18° S 15:22:20 10° SE daylight
22 Nov - 17:05:54 10° SW 17:10:06 16° S 17:14:24 10° SSE visible
23 Nov - 14:13:03 10° SSW 14:16:59 16° S 14:21:04 10° SE daylight
23 Nov - 16:04:56 10° SW 16:09:18 17° S 16:13:50 10° SSE daylight
23 Nov - 17:59:58 10° SSW 18:01:37 11° SSW 18:03:19 10° S visible
24 Nov - 13:13:13 10° SSW 13:16:18 14° SSE 13:19:28 10° SE daylight
24 Nov - 15:04:14 10° SW 15:08:32 17° S 15:13:01 10° SE daylight
24 Nov - 16:57:44 10° SW 17:00:52 13° SSW 17:04:05 10° S visible
25 Nov - 12:14:28 10° S 12:15:41 11° SSE 12:16:55 10° SSE daylight
25 Nov - 14:03:47 10° SSW 14:07:49 17° S 14:11:59 10° SE daylight
25 Nov - 15:56:24 10° SW 16:00:07 15° S 16:03:57 10° SSE daylight
26 Nov - 13:03:37 10° SSW 13:07:08 15° S 13:10:45 10° SE daylight
26 Nov - 14:55:28 10° SW 14:59:23 16° S 15:03:26 10° SSE daylight
27 Nov - 12:03:51 10° S 12:06:30 13° SSE 12:09:11 10° SE daylight
27 Nov - 13:54:48 10° SW 13:58:40 16° S 14:02:41 10° SE daylight
27 Nov - 15:48:29 10° SW 15:50:56 12° SSW 15:53:26 10° S daylight
